Wetterdaten: Samstag, 01.06.2013
Datum Zeit Temperatur Luftfeuchte Luftdruck Regen Wind Richtung Richtung Taupunkt Windchill Windben
01.06.2013 00:00 7,2 C 96 % 1006,4 hPa 0,0 l/m 6,0 km/h (2 Bft) S-SO 157 6,6 C 6,3 C 6,0 km/h (2 Bft)
01.06.2013 00:05 7,2 C 96 % 1006,4 hPa 0,0 l/m 7,2 km/h (2 Bft) S 180 6,6 C 5,3 C 8,9 km/h (2 Bft)
01.06.2013 00:10 7,3 C 96 % 1006,4 hPa 0,0 l/m 6,6 km/h (2 Bft) S 180 6,7 C 6,2 C 10,1 km/h (2 Bft)
01.06.2013 00:15 7,3 C 96 % 1006,4 hPa 0,0 l/m 7,7 km/h (2 Bft) S-SW 202 6,7 C 4,9 C 9,2 km/h (2 Bft)
01.06.2013 00:20 7,3 C 96 % 1006,5 hPa 0,0 l/m 7,9 km/h (2 Bft) S 180 6,7 C 4,8 C 14,8 km/h (3 Bft)
01.06.2013 00:25 7,4 C 96 % 1006,5 hPa 0,0 l/m 6,0 km/h (2 Bft) S 180 6,8 C 6,6 C 5,3 km/h (1 Bft)
01.06.2013 00:30 7,4 C 96 % 1006,5 hPa 0,0 l/m 6,1 km/h (2 Bft) S 180 6,8 C 6,6 C 8,4 km/h (2 Bft)
01.06.2013 00:35 7,4 C 96 % 1006,5 hPa 0,0 l/m 7,7 km/h (2 Bft) O-NO 67 6,8 C 5,1 C 15,1 km/h (3 Bft)
01.06.2013 00:40 7,5 C 96 % 1006,8 hPa 0,0 l/m 8,2 km/h (2 Bft) W-SW 247 6,9 C 4,7 C 15,8 km/h (3 Bft)
01.06.2013 00:45 7,5 C 96 % 1006,8 hPa 0,7 l/m 7,7 km/h (2 Bft) O-SO 112 6,9 C 5,1 C 5,0 km/h (1 Bft)
01.06.2013 00:50 7,4 C 96 % 1006,8 hPa 0,0 l/m 6,3 km/h (2 Bft) S-SW 202 6,8 C 6,6 C 17,2 km/h (3 Bft)
01.06.2013 00:55 7,5 C 96 % 1006,8 hPa 0,7 l/m 5,0 km/h (1 Bft) S 180 6,9 C 6,9 C 5,5 km/h (1 Bft)
01.06.2013 01:00 7,5 C 96 % 1006,9 hPa 0,0 l/m 4,7 km/h (1 Bft) S-SO 157 6,9 C 7,0 C 6,4 km/h (2 Bft)
01.06.2013 01:05 7,5 C 96 % 1006,9 hPa 0,0 l/m 3,4 km/h (1 Bft) SO 135 6,9 C 7,6 C 3,9 km/h (1 Bft)
01.06.2013 01:10 7,5 C 96 % 1006,9 hPa 0,0 l/m 2,9 km/h (1 Bft) SO 135 6,9 C 7,6 C 3,5 km/h (1 Bft)
01.06.2013 01:15 7,5 C 96 % 1006,9 hPa 0,7 l/m 3,4 km/h (1 Bft) S-SO 157 6,9 C 7,6 C 3,7 km/h (1 Bft)
01.06.2013 01:20 7,5 C 96 % 1007,3 hPa 0,0 l/m 4,3 km/h (1 Bft) S 180 6,9 C 7,3 C 5,6 km/h (1 Bft)
01.06.2013 01:25 7,5 C 96 % 1007,3 hPa 0,0 l/m 4,7 km/h (1 Bft) SW 225 6,9 C 7,2 C 2,6 km/h (1 Bft)
01.06.2013 01:30 7,5 C 96 % 1007,3 hPa 0,0 l/m 3,7 km/h (1 Bft) W-SW 247 6,9 C 7,6 C 3,7 km/h (1 Bft)
01.06.2013 01:35 7,6 C 96 % 1007,3 hPa 0,0 l/m 3,1 km/h (1 Bft) O-SO 112 7,0 C 7,6 C 6,1 km/h (2 Bft)
01.06.2013 01:40 7,6 C 96 % 1007,6 hPa 0,0 l/m 3,4 km/h (1 Bft) S 180 7,0 C 7,7 C 0,0 km/h (0 Bft)
01.06.2013 01:45 7,6 C 96 % 1007,6 hPa 0,0 l/m 3,1 km/h (1 Bft) W-NW 292 7,0 C 7,7 C 5,8 km/h (2 Bft)
01.06.2013 01:50 7,6 C 96 % 1007,6 hPa 0,0 l/m 2,9 km/h (1 Bft) S-SO 157 7,0 C 7,7 C 8,4 km/h (2 Bft)
01.06.2013 01:55 7,6 C 96 % 1007,6 hPa 0,0 l/m 3,4 km/h (1 Bft) W 270 7,0 C 7,7 C 0,0 km/h (0 Bft)
01.06.2013 02:00 7,6 C 96 % 1007,6 hPa 0,7 l/m 2,9 km/h (1 Bft) O 90 7,0 C 7,7 C 8,5 km/h (2 Bft)
01.06.2013 02:05 7,6 C 96 % 1007,6 hPa 0,0 l/m 1,4 km/h (1 Bft) O-SO 112 7,0 C 7,8 C 0,0 km/h (0 Bft)
01.06.2013 02:10 7,6 C 96 % 1007,6 hPa 0,0 l/m 1,1 km/h (1 Bft) O 90 7,0 C 7,8 C 1,6 km/h (1 Bft)
01.06.2013 02:15 7,6 C 96 % 1007,6 hPa 0,0 l/m 1,3 km/h (1 Bft) S-SO 157 7,0 C 7,8 C 2,7 km/h (1 Bft)
01.06.2013 02:20 7,7 C 96 % 1007,9 hPa 0,0 l/m 1,4 km/h (1 Bft) S 180 7,1 C 7,8 C 0,0 km/h (0 Bft)
01.06.2013 02:25 7,7 C 96 % 1007,9 hPa 0,0 l/m 1,6 km/h (1 Bft) S 180 7,1 C 7,8 C 2,3 km/h (1 Bft)
01.06.2013 02:30 7,7 C 96 % 1007,9 hPa 0,0 l/m 1,9 km/h (1 Bft) O 90 7,1 C 7,8 C 0,0 km/h (0 Bft)
01.06.2013 02:35 7,7 C 96 % 1007,9 hPa 0,7 l/m 2,1 km/h (1 Bft) S 180 7,1 C 7,8 C 4,8 km/h (1 Bft)
01.06.2013 02:40 7,7 C 96 % 1008,0 hPa 0,0 l/m 1,4 km/h (1 Bft) O-SO 112 7,1 C 7,8 C 0,0 km/h (0 Bft)
01.06.2013 02:45 7,7 C 96 % 1008,0 hPa 0,0 l/m 0,8 km/h (0 Bft) O-SO 112 7,1 C 7,8 C 1,9 km/h (1 Bft)
01.06.2013 02:50 7,7 C 96 % 1008,0 hPa 0,0 l/m 0,8 km/h (0 Bft) O 90 7,1 C 7,7 C 0,0 km/h (0 Bft)
01.06.2013 02:55 7,7 C 96 % 1008,0 hPa 0,0 l/m 0,8 km/h (0 Bft) N-NW 337 7,1 C 7,7 C 0,0 km/h (0 Bft)
01.06.2013 03:00 7,7 C 96 % 1008,4 hPa 0,0 l/m 0,6 km/h (0 Bft) N 360 7,1 C 7,7 C 2,1 km/h (1 Bft)
01.06.2013 03:05 7,7 C 96 % 1008,4 hPa 0,0 l/m 1,0 km/h (0 Bft) NO 45 7,1 C 7,7 C 2,7 km/h (1 Bft)
01.06.2013 03:10 7,7 C 96 % 1008,4 hPa 0,0 l/m 1,8 km/h (1 Bft) NO 45 7,1 C 7,7 C 2,6 km/h (1 Bft)
01.06.2013 03:15 7,7 C 96 % 1008,4 hPa 0,0 l/m 1,3 km/h (1 Bft) S-SW 202 7,1 C 7,8 C 0,0 km/h (0 Bft)
01.06.2013 03:20 7,7 C 96 % 1008,7 hPa 0,0 l/m 0,3 km/h (0 Bft) O-SO 112 7,1 C 7,8 C 0,0 km/h (0 Bft)
01.06.2013 03:25 7,7 C 96 % 1008,7 hPa 0,0 l/m 0,5 km/h (0 Bft) S-SO 157 7,1 C 7,8 C 2,9 km/h (1 Bft)
01.06.2013 03:30 7,7 C 96 % 1008,7 hPa 0,0 l/m 1,3 km/h (1 Bft) S 180 7,1 C 7,8 C 2,9 km/h (1 Bft)
01.06.2013 03:35 7,7 C 96 % 1008,7 hPa 0,0 l/m 2,4 km/h (1 Bft) SO 135 7,1 C 7,8 C 1,6 km/h (1 Bft)
01.06.2013 03:40 7,7 C 96 % 1008,7 hPa 0,0 l/m 1,4 km/h (1 Bft) SO 135 7,1 C 7,8 C 0,0 km/h (0 Bft)
01.06.2013 03:45 7,7 C 96 % 1008,7 hPa 0,0 l/m 0,8 km/h (0 Bft) S-SO 157 7,1 C 7,8 C 5,8 km/h (2 Bft)
01.06.2013 03:50 7,8 C 96 % 1008,7 hPa 0,0 l/m 1,1 km/h (1 Bft) S-SO 157 7,2 C 7,8 C 3,4 km/h (1 Bft)
01.06.2013 03:55 7,8 C 96 % 1008,7 hPa 0,0 l/m 1,3 km/h (1 Bft) S-SO 157 7,2 C 7,9 C 2,9 km/h (1 Bft)
01.06.2013 04:00 7,8 C 96 % 1008,9 hPa 0,0 l/m 1,6 km/h (1 Bft) O-SO 112 7,2 C 7,9 C 3,4 km/h (1 Bft)
01.06.2013 04:05 7,8 C 96 % 1008,9 hPa 0,0 l/m 2,7 km/h (1 Bft) O 90 7,2 C 7,9 C 1,9 km/h (1 Bft)
01.06.2013 04:10 7,8 C 96 % 1008,9 hPa 0,0 l/m 3,4 km/h (1 Bft) O-SO 112 7,2 C 7,9 C 3,4 km/h (1 Bft)
01.06.2013 04:15 7,7 C 96 % 1008,9 hPa 0,0 l/m 2,9 km/h (1 Bft) S 180 7,1 C 7,9 C 3,9 km/h (1 Bft)
01.06.2013 04:20 7,7 C 96 % 1009,1 hPa 0,0 l/m 2,9 km/h (1 Bft) S-SW 202 7,1 C 8,0 C 4,8 km/h (1 Bft)
01.06.2013 04:25 7,7 C 96 % 1009,1 hPa 0,0 l/m 3,1 km/h (1 Bft) S-SO 157 7,1 C 8,0 C 4,7 km/h (1 Bft)
01.06.2013 04:30 7,7 C 96 % 1009,1 hPa 0,0 l/m 2,4 km/h (1 Bft) O-SO 112 7,1 C 8,0 C 2,4 km/h (1 Bft)
01.06.2013 04:35 7,7 C 96 % 1009,1 hPa 0,0 l/m 2,3 km/h (1 Bft) S-SO 157 7,1 C 8,0 C 5,3 km/h (1 Bft)
01.06.2013 04:40 7,7 C 96 % 1009,2 hPa 0,0 l/m 2,1 km/h (1 Bft) S 180 7,1 C 8,0 C 3,2 km/h (1 Bft)
01.06.2013 04:45 7,7 C 96 % 1009,2 hPa 0,0 l/m 1,6 km/h (1 Bft) O-SO 112 7,1 C 7,9 C 0,0 km/h (0 Bft)
01.06.2013 04:50 7,7 C 96 % 1009,2 hPa 0,0 l/m 1,1 km/h (1 Bft) S-SO 157 7,1 C 7,8 C 0,0 km/h (0 Bft)
01.06.2013 04:55 7,6 C 96 % 1009,2 hPa 0,0 l/m 1,0 km/h (0 Bft) O 90 7,0 C 7,8 C 2,6 km/h (1 Bft)
01.06.2013 05:00 7,6 C 96 % 1009,0 hPa 0,0 l/m 1,1 km/h (1 Bft) O 90 7,0 C 7,7 C 0,0 km/h (0 Bft)
01.06.2013 05:05 7,7 C 96 % 1009,0 hPa 0,0 l/m 1,4 km/h (1 Bft) O 90 7,1 C 7,8 C 2,4 km/h (1 Bft)
01.06.2013 05:10 7,7 C 96 % 1009,0 hPa 0,0 l/m 1,1 km/h (1 Bft) O-SO 112 7,1 C 7,8 C 0,0 km/h (0 Bft)
01.06.2013 05:15 7,7 C 96 % 1009,0 hPa 0,0 l/m 1,0 km/h (0 Bft) S 180 7,1 C 7,9 C 0,0 km/h (0 Bft)
01.06.2013 05:20 7,7 C 96 % 1009,4 hPa 0,0 l/m 0,6 km/h (0 Bft) W-NW 292 7,1 C 7,8 C 0,0 km/h (0 Bft)
01.06.2013 05:25 7,7 C 96 % 1009,4 hPa 0,0 l/m 0,3 km/h (0 Bft) SW 225 7,1 C 7,8 C 0,0 km/h (0 Bft)
01.06.2013 05:30 7,6 C 96 % 1009,4 hPa 0,0 l/m 0,5 km/h (0 Bft) S 180 7,0 C 7,7 C 3,1 km/h (1 Bft)
01.06.2013 05:35 7,6 C 96 % 1009,4 hPa 0,0 l/m 1,4 km/h (1 Bft) S 180 7,0 C 7,7 C 0,0 km/h (0 Bft)
01.06.2013 05:40 7,7 C 96 % 1010,0 hPa 0,0 l/m 2,3 km/h (1 Bft) S 180 7,1 C 7,7 C 2,7 km/h (1 Bft)
01.06.2013 05:45 7,7 C 96 % 1010,0 hPa 0,0 l/m 2,4 km/h (1 Bft) S 180 7,1 C 7,7 C 3,2 km/h (1 Bft)
01.06.2013 05:50 7,6 C 96 % 1010,0 hPa 0,0 l/m 2,4 km/h (1 Bft) S 180 7,0 C 7,7 C 1,6 km/h (1 Bft)
01.06.2013 05:55 7,4 C 96 % 1010,0 hPa 0,0 l/m 2,1 km/h (1 Bft) S-SO 157 6,8 C 7,6 C 0,0 km/h (0 Bft)
01.06.2013 06:00 7,3 C 96 % 1010,9 hPa 0,0 l/m 2,3 km/h (1 Bft) O-SO 112 6,7 C 7,5 C 3,4 km/h (1 Bft)
01.06.2013 06:05 7,3 C 96 % 1010,9 hPa 0,0 l/m 3,1 km/h (1 Bft) NO 45 6,7 C 7,5 C 2,1 km/h (1 Bft)
01.06.2013 06:10 7,3 C 96 % 1010,9 hPa 0,0 l/m 2,4 km/h (1 Bft) W-NW 292 6,7 C 7,4 C 3,7 km/h (1 Bft)
01.06.2013 06:15 7,3 C 96 % 1010,9 hPa 0,0 l/m 2,3 km/h (1 Bft) S-SO 157 6,7 C 7,4 C 5,1 km/h (1 Bft)
01.06.2013 06:20 7,3 C 96 % 1011,2 hPa 0,0 l/m 2,9 km/h (1 Bft) O-SO 112 6,7 C 7,5 C 3,1 km/h (1 Bft)
01.06.2013 06:25 7,4 C 96 % 1011,2 hPa 0,0 l/m 3,5 km/h (1 Bft) S 180 6,8 C 7,5 C 4,3 km/h (1 Bft)
01.06.2013 06:30 7,5 C 96 % 1011,2 hPa 0,0 l/m 3,4 km/h (1 Bft) S 180 6,9 C 7,6 C 5,5 km/h (1 Bft)
01.06.2013 06:35 7,6 C 96 % 1011,2 hPa 0,0 l/m 2,7 km/h (1 Bft) O-SO 112 7,0 C 7,7 C 4,5 km/h (1 Bft)
01.06.2013 06:40 7,8 C 96 % 1011,4 hPa 0,0 l/m 3,2 km/h (1 Bft) S-SO 157 7,2 C 7,9 C 1,9 km/h (1 Bft)
01.06.2013 06:45 7,9 C 96 % 1011,4 hPa 0,0 l/m 4,2 km/h (1 Bft) S-SO 157 7,3 C 7,9 C 4,5 km/h (1 Bft)
01.06.2013 06:50 7,9 C 96 % 1011,4 hPa 0,0 l/m 5,0 km/h (1 Bft) S-SW 202 7,3 C 7,7 C 12,1 km/h (2 Bft)
01.06.2013 06:55 7,9 C 96 % 1011,4 hPa 0,0 l/m 5,6 km/h (1 Bft) S 180 7,3 C 7,5 C 9,0 km/h (2 Bft)
01.06.2013 07:00 7,9 C 96 % 1011,6 hPa 0,0 l/m 4,3 km/h (1 Bft) SO 135 7,3 C 7,9 C 5,0 km/h (1 Bft)
01.06.2013 07:05 8,3 C 96 % 1011,6 hPa 0,0 l/m 3,4 km/h (1 Bft) O-SO 112 7,7 C 8,4 C 3,4 km/h (1 Bft)
01.06.2013 07:10 9,0 C 96 % 1011,6 hPa 0,0 l/m 3,4 km/h (1 Bft) S 180 8,4 C 8,7 C 2,7 km/h (1 Bft)
01.06.2013 07:15 9,6 C 96 % 1011,6 hPa 0,0 l/m 3,1 km/h (1 Bft) S-SO 157 9,0 C 9,6 C 7,1 km/h (2 Bft)
01.06.2013 07:20 9,6 C 96 % 1011,9 hPa 0,0 l/m 3,2 km/h (1 Bft) S-SO 157 9,0 C 9,8 C 4,7 km/h (1 Bft)
01.06.2013 07:25 9,5 C 96 % 1011,9 hPa 0,0 l/m 4,2 km/h (1 Bft) S 180 8,9 C 10,0 C 7,6 km/h (2 Bft)
01.06.2013 07:30 9,6 C 96 % 1011,9 hPa 0,0 l/m 4,0 km/h (1 Bft) O-SO 112 9,0 C 10,1 C 4,0 km/h (1 Bft)
01.06.2013 07:35 9,5 C 96 % 1011,9 hPa 0,0 l/m 4,2 km/h (1 Bft) S-SO 157 8,9 C 10,1 C 4,0 km/h (1 Bft)
01.06.2013 07:40 9,5 C 96 % 1012,2 hPa 0,0 l/m 4,3 km/h (1 Bft) S-SO 157 8,9 C 10,1 C 8,9 km/h (2 Bft)
01.06.2013 07:45 9,8 C 96 % 1012,2 hPa 0,0 l/m 5,5 km/h (1 Bft) S 180 9,2 C 9,8 C 8,5 km/h (2 Bft)
01.06.2013 07:50 10,0 C 96 % 1012,2 hPa 0,0 l/m 5,8 km/h (2 Bft) S-SO 157 9,4 C 9,9 C 11,1 km/h (2 Bft)
01.06.2013 07:55 10,1 C 96 % 1012,2 hPa 0,0 l/m 4,8 km/h (1 Bft) S-SW 202 9,5 C 10,7 C 7,4 km/h (2 Bft)
01.06.2013 08:00 10,6 C 96 % 1012,5 hPa 0,0 l/m 5,3 km/h (1 Bft) S 180 10,0 C 10,8 C 8,9 km/h (2 Bft)
01.06.2013 08:05 12,7 C 95 % 1012,5 hPa 0,0 l/m 5,3 km/h (1 Bft) S-SO 157 11,9 C 12,4 C 9,3 km/h (2 Bft)
01.06.2013 08:10 12,9 C 95 % 1012,5 hPa 0,0 l/m 4,7 km/h (1 Bft) SW 225 12,1 C 13,1 C 8,0 km/h (2 Bft)
01.06.2013 08:15 12,3 C 95 % 1012,5 hPa 0,0 l/m 5,8 km/h (2 Bft) S 180 11,5 C 12,9 C 9,3 km/h (2 Bft)
01.06.2013 08:20 12,4 C 95 % 1012,4 hPa 0,0 l/m 6,0 km/h (2 Bft) SO 135 11,6 C 12,9 C 11,7 km/h (2 Bft)
01.06.2013 08:25 11,7 C 95 % 1012,4 hPa 0,0 l/m 6,9 km/h (2 Bft) S 180 10,9 C 11,7 C 9,8 km/h (2 Bft)
01.06.2013 08:30 12,1 C 94 % 1012,4 hPa 0,0 l/m 7,4 km/h (2 Bft) SO 135 11,2 C 11,2 C 8,9 km/h (2 Bft)
01.06.2013 08:35 12,9 C 93 % 1012,4 hPa 0,0 l/m 7,1 km/h (2 Bft) S-SW 202 11,8 C 12,3 C 10,5 km/h (2 Bft)
01.06.2013 08:40 13,5 C 91 % 1012,2 hPa 0,0 l/m 6,9 km/h (2 Bft) S 180 12,1 C 12,6 C 12,1 km/h (2 Bft)
01.06.2013 08:45 13,9 C 89 % 1012,2 hPa 0,0 l/m 8,5 km/h (2 Bft) W-SW 247 12,1 C 11,7 C 10,8 km/h (2 Bft)
01.06.2013 08:50 14,2 C 87 % 1012,2 hPa 0,0 l/m 9,3 km/h (2 Bft) S 180 12,1 C 11,5 C 19,8 km/h (3 Bft)
01.06.2013 08:55 15,8 C 85 % 1012,2 hPa 0,0 l/m 7,6 km/h (2 Bft) W-SW 247 13,3 C 14,0 C 2,9 km/h (1 Bft)
01.06.2013 09:00 14,3 C 85 % 1012,6 hPa 0,0 l/m 6,6 km/h (2 Bft) S-SO 157 11,8 C 15,3 C 8,5 km/h (2 Bft)
01.06.2013 09:05 12,0 C 86 % 1012,6 hPa 0,0 l/m 7,1 km/h (2 Bft) S-SO 157 9,7 C 13,3 C 10,0 km/h (2 Bft)
01.06.2013 09:10 11,7 C 87 % 1012,6 hPa 0,0 l/m 7,2 km/h (2 Bft) S 180 9,6 C 12,4 C 9,2 km/h (2 Bft)
01.06.2013 09:15 11,4 C 88 % 1012,6 hPa 0,0 l/m 6,4 km/h (2 Bft) SO 135 9,5 C 12,2 C 4,5 km/h (1 Bft)
01.06.2013 09:20 12,7 C 88 % 1012,8 hPa 0,0 l/m 6,0 km/h (2 Bft) S 180 10,8 C 12,3 C 9,2 km/h (2 Bft)
01.06.2013 09:25 12,2 C 88 % 1012,8 hPa 0,0 l/m 7,1 km/h (2 Bft) S 180 10,3 C 11,9 C 10,0 km/h (2 Bft)
01.06.2013 09:30 12,3 C 88 % 1012,8 hPa 0,0 l/m 7,9 km/h (2 Bft) S 180 10,4 C 11,5 C 10,1 km/h (2 Bft)
01.06.2013 09:35 12,3 C 88 % 1012,8 hPa 0,0 l/m 7,1 km/h (2 Bft) S 180 10,4 C 12,5 C 10,1 km/h (2 Bft)
01.06.2013 09:40 13,0 C 88 % 1012,9 hPa 0,0 l/m 6,6 km/h (2 Bft) S-SO 157 11,1 C 13,1 C 5,8 km/h (2 Bft)
01.06.2013 09:45 13,9 C 88 % 1012,9 hPa 0,0 l/m 6,1 km/h (2 Bft) S-SO 157 11,9 C 14,3 C 9,3 km/h (2 Bft)
01.06.2013 09:50 13,3 C 87 % 1012,9 hPa 0,0 l/m 6,1 km/h (2 Bft) NO 45 11,2 C 14,6 C 7,9 km/h (2 Bft)
01.06.2013 09:55 13,4 C 87 % 1012,9 hPa 0,0 l/m 5,5 km/h (1 Bft) S-SO 157 11,3 C 14,6 C 8,7 km/h (2 Bft)
01.06.2013 10:00 13,4 C 88 % 1012,8 hPa 0,0 l/m 5,0 km/h (1 Bft) S 180 11,5 C 14,7 C 7,4 km/h (2 Bft)
01.06.2013 10:05 13,5 C 88 % 1012,8 hPa 0,0 l/m 5,5 km/h (1 Bft) S-SW 202 11,6 C 14,8 C 5,8 km/h (2 Bft)
01.06.2013 10:10 13,7 C 88 % 1012,8 hPa 0,0 l/m 6,0 km/h (2 Bft) S-SO 157 11,7 C 14,9 C 9,2 km/h (2 Bft)
01.06.2013 10:15 14,3 C 87 % 1012,8 hPa 0,0 l/m 6,9 km/h (2 Bft) S-SO 157 12,2 C 14,9 C 10,1 km/h (2 Bft)
01.06.2013 10:20 13,3 C 87 % 1012,9 hPa 0,0 l/m 7,7 km/h (2 Bft) S 180 11,2 C 14,5 C 12,1 km/h (2 Bft)
01.06.2013 10:25 13,2 C 88 % 1012,9 hPa 0,0 l/m 6,6 km/h (2 Bft) S 180 11,3 C 14,6 C 6,3 km/h (2 Bft)
01.06.2013 10:30 13,7 C 89 % 1012,9 hPa 0,0 l/m 5,8 km/h (2 Bft) S 180 11,9 C 14,7 C 8,4 km/h (2 Bft)
01.06.2013 10:36 14,0 C 89 % 1012,9 hPa 0,0 l/m 5,3 km/h (1 Bft) SW 225 12,2 C 14,7 C 4,5 km/h (1 Bft)
01.06.2013 10:37 14,0 C 89 % 1012,9 hPa 0,0 l/m 5,3 km/h (1 Bft) SW 225 12,2 C 14,7 C 4,5 km/h (1 Bft)
01.06.2013 10:38 14,0 C 89 % 1012,9 hPa 0,0 l/m 5,3 km/h (1 Bft) SW 225 12,2 C 14,7 C 4,5 km/h (1 Bft)
01.06.2013 10:40 13,7 C 89 % 1012,9 hPa 0,0 l/m 5,3 km/h (1 Bft) O 90 11,9 C 14,8 C 1,6 km/h (1 Bft)
01.06.2013 10:45 12,9 C 89 % 1012,9 hPa 0,0 l/m 5,0 km/h (1 Bft) SO 135 11,1 C 14,4 C 9,2 km/h (2 Bft)
01.06.2013 10:50 12,9 C 89 % 1012,9 hPa 0,0 l/m 5,5 km/h (1 Bft) S 180 11,1 C 14,1 C 5,0 km/h (1 Bft)
01.06.2013 10:55 13,6 C 88 % 1012,9 hPa 0,0 l/m 5,3 km/h (1 Bft) S 180 11,6 C 14,2 C 3,1 km/h (1 Bft)
01.06.2013 11:00 14,0 C 88 % 1012,6 hPa 0,0 l/m 5,3 km/h (1 Bft) W-SW 247 12,0 C 14,8 C 7,2 km/h (2 Bft)
01.06.2013 11:05 13,6 C 86 % 1012,6 hPa 0,0 l/m 6,3 km/h (2 Bft) S-SO 157 11,3 C 14,8 C 11,1 km/h (2 Bft)
01.06.2013 11:10 13,6 C 87 % 1012,6 hPa 0,0 l/m 6,3 km/h (2 Bft) S-SW 202 11,5 C 14,7 C 3,4 km/h (1 Bft)
01.06.2013 11:15 12,7 C 88 % 1012,6 hPa 0,0 l/m 6,0 km/h (2 Bft) S-SW 202 10,8 C 14,1 C 15,4 km/h (3 Bft)
01.06.2013 11:20 12,3 C 88 % 1013,0 hPa 0,0 l/m 6,4 km/h (2 Bft) S 180 10,4 C 13,4 C 6,3 km/h (2 Bft)
01.06.2013 11:25 12,0 C 88 % 1013,0 hPa 0,0 l/m 6,9 km/h (2 Bft) S-SO 157 10,1 C 12,1 C 9,7 km/h (2 Bft)
01.06.2013 11:30 11,9 C 89 % 1013,0 hPa 0,0 l/m 6,1 km/h (2 Bft) S 180 10,1 C 12,4 C 8,4 km/h (2 Bft)
01.06.2013 11:35 11,8 C 89 % 1013,0 hPa 0,0 l/m 6,6 km/h (2 Bft) W-SW 247 10,0 C 11,8 C 10,0 km/h (2 Bft)
01.06.2013 11:40 11,8 C 89 % 1012,8 hPa 0,0 l/m 7,4 km/h (2 Bft) S-SW 202 10,0 C 10,5 C 15,3 km/h (3 Bft)
01.06.2013 11:45 12,0 C 88 % 1012,8 hPa 0,0 l/m 7,6 km/h (2 Bft) S 180 10,1 C 10,3 C 14,6 km/h (3 Bft)
01.06.2013 11:50 12,2 C 87 % 1012,8 hPa 0,0 l/m 8,4 km/h (2 Bft) S 180 10,1 C 10,0 C 16,3 km/h (3 Bft)
01.06.2013 11:55 12,9 C 87 % 1012,8 hPa 0,0 l/m 8,5 km/h (2 Bft) S 180 10,8 C 10,8 C 12,2 km/h (2 Bft)
01.06.2013 12:00 13,0 C 85 % 1012,9 hPa 0,0 l/m 8,0 km/h (2 Bft) SO 135 10,5 C 11,8 C 5,5 km/h (1 Bft)
01.06.2013 12:05 12,9 C 86 % 1012,9 hPa 0,0 l/m 7,9 km/h (2 Bft) S 180 10,6 C 11,7 C 7,1 km/h (2 Bft)
01.06.2013 12:10 12,7 C 86 % 1012,9 hPa 0,0 l/m 7,2 km/h (2 Bft) S 180 10,4 C 11,9 C 10,6 km/h (2 Bft)
01.06.2013 12:15 12,2 C 86 % 1012,9 hPa 0,0 l/m 7,1 km/h (2 Bft) S-SW 202 9,9 C 11,4 C 12,6 km/h (3 Bft)
01.06.2013 12:20 12,0 C 87 % 1012,9 hPa 0,0 l/m 7,4 km/h (2 Bft) SO 135 9,9 C 10,7 C 11,1 km/h (2 Bft)
01.06.2013 12:25 11,4 C 87 % 1012,9 hPa 0,0 l/m 7,9 km/h (2 Bft) S 180 9,3 C 9,8 C 5,5 km/h (1 Bft)
01.06.2013 12:30 11,1 C 88 % 1012,9 hPa 0,0 l/m 7,9 km/h (2 Bft) W 270 9,2 C 9,2 C 7,7 km/h (2 Bft)
01.06.2013 12:35 11,0 C 89 % 1012,9 hPa 0,0 l/m 5,1 km/h (1 Bft) S-SO 157 9,3 C 10,6 C 5,0 km/h (1 Bft)
01.06.2013 12:40 11,0 C 89 % 1012,9 hPa 0,0 l/m 4,2 km/h (1 Bft) W 270 9,3 C 10,7 C 6,6 km/h (2 Bft)
01.06.2013 12:45 11,1 C 90 % 1012,9 hPa 0,0 l/m 5,1 km/h (1 Bft) SO 135 9,5 C 10,5 C 16,4 km/h (3 Bft)
01.06.2013 12:50 11,1 C 91 % 1012,9 hPa 0,0 l/m 6,1 km/h (2 Bft) S 180 9,7 C 10,1 C 9,0 km/h (2 Bft)
01.06.2013 12:55 10,9 C 91 % 1012,9 hPa 0,0 l/m 6,9 km/h (2 Bft) SO 135 9,5 C 9,5 C 6,8 km/h (2 Bft)
01.06.2013 13:00 10,9 C 92 % 1012,8 hPa 0,7 l/m 6,6 km/h (2 Bft) S-SW 202 9,7 C 9,9 C 7,2 km/h (2 Bft)
01.06.2013 13:05 10,8 C 92 % 1012,8 hPa 0,0 l/m 7,9 km/h (2 Bft) S-SW 202 9,6 C 8,6 C 15,8 km/h (3 Bft)
01.06.2013 13:10 10,6 C 92 % 1012,8 hPa 0,0 l/m 9,0 km/h (2 Bft) S-SW 202 9,4 C 7,8 C 6,9 km/h (2 Bft)
01.06.2013 13:15 10,6 C 92 % 1012,8 hPa 0,0 l/m 9,2 km/h (2 Bft) SO 135 9,4 C 7,4 C 7,7 km/h (2 Bft)
01.06.2013 13:20 10,6 C 92 % 1012,8 hPa 0,0 l/m 9,2 km/h (2 Bft) W 270 9,4 C 7,4 C 21,9 km/h (4 Bft)
01.06.2013 13:25 10,5 C 92 % 1012,8 hPa 0,0 l/m 11,1 km/h (2 Bft) S 180 9,3 C 5,7 C 20,1 km/h (4 Bft)
01.06.2013 13:30 10,4 C 92 % 1012,8 hPa 0,0 l/m 11,9 km/h (2 Bft) SO 135 9,2 C 5,1 C 24,1 km/h (4 Bft)
01.06.2013 13:35 10,4 C 93 % 1012,8 hPa 0,0 l/m 11,3 km/h (2 Bft) S 180 9,3 C 5,4 C 15,9 km/h (3 Bft)
01.06.2013 13:40 10,4 C 93 % 1012,8 hPa 0,7 l/m 9,7 km/h (2 Bft) SO 135 9,3 C 6,7 C 17,1 km/h (3 Bft)
01.06.2013 13:45 10,3 C 93 % 1012,8 hPa 0,0 l/m 9,3 km/h (2 Bft) S 180 9,2 C 6,9 C 10,0 km/h (2 Bft)
01.06.2013 13:50 10,3 C 93 % 1012,8 hPa 0,7 l/m 9,5 km/h (2 Bft) S 180 9,2 C 6,8 C 8,7 km/h (2 Bft)
01.06.2013 13:55 10,3 C 93 % 1012,8 hPa 0,0 l/m 9,2 km/h (2 Bft) S-SO 157 9,2 C 7,1 C 21,1 km/h (4 Bft)
01.06.2013 14:00 10,3 C 93 % 1012,9 hPa 0,0 l/m 9,3 km/h (2 Bft) S-SO 157 9,2 C 7,0 C 8,0 km/h (2 Bft)
01.06.2013 14:05 10,4 C 93 % 1012,9 hPa 0,7 l/m 9,0 km/h (2 Bft) S 180 9,3 C 7,3 C 6,3 km/h (2 Bft)
01.06.2013 14:10 10,4 C 93 % 1012,9 hPa 0,0 l/m 8,7 km/h (2 Bft) SO 135 9,3 C 7,5 C 16,4 km/h (3 Bft)
01.06.2013 14:15 10,5 C 93 % 1012,9 hPa 0,7 l/m 8,0 km/h (2 Bft) S 180 9,4 C 8,2 C 13,8 km/h (3 Bft)
01.06.2013 14:20 10,5 C 93 % 1013,1 hPa 0,0 l/m 8,2 km/h (2 Bft) S 180 9,4 C 8,1 C 8,0 km/h (2 Bft)
01.06.2013 14:25 10,2 C 93 % 1013,1 hPa 0,0 l/m 10,3 km/h (2 Bft) S 180 9,1 C 6,2 C 11,9 km/h (2 Bft)
01.06.2013 14:30 10,1 C 93 % 1013,1 hPa 0,0 l/m 9,3 km/h (2 Bft) S 180 9,0 C 7,0 C 7,2 km/h (2 Bft)
01.06.2013 14:35 10,0 C 93 % 1013,1 hPa 0,7 l/m 7,6 km/h (2 Bft) O-NO 67 8,9 C 8,3 C 8,4 km/h (2 Bft)
01.06.2013 14:40 10,1 C 94 % 1013,1 hPa 0,0 l/m 7,9 km/h (2 Bft) S 180 9,2 C 8,0 C 10,9 km/h (2 Bft)
01.06.2013 14:45 10,0 C 94 % 1013,1 hPa 0,7 l/m 7,9 km/h (2 Bft) SO 135 9,1 C 7,9 C 10,5 km/h (2 Bft)
01.06.2013 14:50 10,0 C 94 % 1013,1 hPa 0,7 l/m 8,9 km/h (2 Bft) S 180 9,1 C 7,0 C 8,2 km/h (2 Bft)
01.06.2013 14:55 10,0 C 94 % 1013,1 hPa 0,0 l/m 7,4 km/h (2 Bft) S 180 9,1 C 8,3 C 5,6 km/h (1 Bft)
01.06.2013 15:00 10,0 C 94 % 1013,2 hPa 0,0 l/m 5,8 km/h (2 Bft) W-SW 247 9,1 C 9,5 C 3,4 km/h (1 Bft)
01.06.2013 15:05 10,0 C 94 % 1013,2 hPa 0,7 l/m 5,5 km/h (1 Bft) S 180 9,1 C 9,6 C 6,3 km/h (2 Bft)
01.06.2013 15:10 10,0 C 94 % 1013,2 hPa 0,0 l/m 4,7 km/h (1 Bft) S-SW 202 9,1 C 9,8 C 4,7 km/h (1 Bft)
01.06.2013 15:15 10,0 C 94 % 1013,2 hPa 0,7 l/m 3,7 km/h (1 Bft) S 180 9,1 C 10,0 C 5,1 km/h (1 Bft)
01.06.2013 15:20 10,0 C 94 % 1013,4 hPa 0,0 l/m 3,1 km/h (1 Bft) S-SW 202 9,1 C 10,1 C 6,4 km/h (2 Bft)
01.06.2013 15:25 10,1 C 94 % 1013,4 hPa 0,7 l/m 4,3 km/h (1 Bft) S 180 9,2 C 10,1 C 4,8 km/h (1 Bft)
01.06.2013 15:30 10,1 C 94 % 1013,4 hPa 0,0 l/m 5,1 km/h (1 Bft) S-SW 202 9,2 C 9,8 C 12,6 km/h (3 Bft)
01.06.2013 15:35 10,0 C 94 % 1013,4 hPa 0,7 l/m 5,6 km/h (1 Bft) S 180 9,1 C 9,7 C 5,8 km/h (2 Bft)
01.06.2013 15:40 10,1 C 94 % 1013,4 hPa 0,0 l/m 5,8 km/h (2 Bft) S 180 9,2 C 9,6 C 7,4 km/h (2 Bft)
01.06.2013 15:45 10,1 C 94 % 1013,4 hPa 0,7 l/m 5,5 km/h (1 Bft) S-SO 157 9,2 C 9,7 C 6,9 km/h (2 Bft)
01.06.2013 15:50 10,0 C 94 % 1013,4 hPa 0,0 l/m 6,3 km/h (2 Bft) S 180 9,1 C 9,5 C 6,8 km/h (2 Bft)
01.06.2013 15:55 10,0 C 94 % 1013,4 hPa 0,0 l/m 6,9 km/h (2 Bft) S 180 9,1 C 8,8 C 7,1 km/h (2 Bft)
01.06.2013 16:00 10,0 C 94 % 1013,4 hPa 0,7 l/m 6,1 km/h (2 Bft) S-SW 202 9,1 C 9,4 C 7,1 km/h (2 Bft)
01.06.2013 16:05 10,0 C 94 % 1013,4 hPa 0,0 l/m 4,8 km/h (1 Bft) S-SO 157 9,1 C 9,8 C 4,3 km/h (1 Bft)
01.06.2013 16:10 9,9 C 95 % 1013,4 hPa 0,0 l/m 5,5 km/h (1 Bft) S 180 9,1 C 9,6 C 15,0 km/h (3 Bft)
01.06.2013 16:15 9,9 C 95 % 1013,4 hPa 0,7 l/m 6,8 km/h (2 Bft) S 180 9,1 C 8,8 C 7,6 km/h (2 Bft)
01.06.2013 16:20 9,9 C 95 % 1013,5 hPa 0,0 l/m 7,4 km/h (2 Bft) S 180 9,1 C 8,2 C 12,1 km/h (2 Bft)
01.06.2013 16:25 9,9 C 95 % 1013,5 hPa 0,0 l/m 7,7 km/h (2 Bft) S 180 9,1 C 8,1 C 14,5 km/h (3 Bft)
01.06.2013 16:30 9,9 C 95 % 1013,5 hPa 0,0 l/m 7,7 km/h (2 Bft) S 180 9,1 C 7,9 C 6,1 km/h (2 Bft)
01.06.2013 16:35 9,9 C 95 % 1013,5 hPa 0,0 l/m 6,9 km/h (2 Bft) S 180 9,1 C 8,7 C 6,8 km/h (2 Bft)
01.06.2013 16:40 9,8 C 95 % 1013,6 hPa 0,7 l/m 7,7 km/h (2 Bft) S 180 9,0 C 7,9 C 17,9 km/h (3 Bft)
01.06.2013 16:45 9,7 C 95 % 1013,6 hPa 0,0 l/m 9,2 km/h (2 Bft) SO 135 8,9 C 6,4 C 10,0 km/h (2 Bft)
01.06.2013 16:50 9,7 C 94 % 1013,6 hPa 0,0 l/m 9,0 km/h (2 Bft) O-SO 112 8,8 C 6,6 C 9,5 km/h (2 Bft)
01.06.2013 16:55 9,7 C 95 % 1013,6 hPa 0,0 l/m 9,3 km/h (2 Bft) S-SO 157 8,9 C 6,3 C 6,1 km/h (2 Bft)
01.06.2013 17:00 9,6 C 95 % 1013,6 hPa 0,7 l/m 9,5 km/h (2 Bft) O-SO 112 8,8 C 6,0 C 12,9 km/h (3 Bft)
01.06.2013 17:05 9,6 C 94 % 1013,6 hPa 0,0 l/m 9,5 km/h (2 Bft) S 180 8,7 C 6,0 C 12,1 km/h (2 Bft)
01.06.2013 17:10 9,6 C 94 % 1013,6 hPa 0,0 l/m 8,5 km/h (2 Bft) S 180 8,7 C 6,7 C 7,6 km/h (2 Bft)
01.06.2013 17:15 9,6 C 94 % 1013,6 hPa 0,0 l/m 7,7 km/h (2 Bft) S 180 8,7 C 7,4 C 5,1 km/h (1 Bft)
01.06.2013 17:20 9,6 C 95 % 1013,7 hPa 0,7 l/m 7,1 km/h (2 Bft) S-SW 202 8,8 C 8,2 C 12,1 km/h (2 Bft)
01.06.2013 17:25 9,6 C 95 % 1013,7 hPa 0,7 l/m 7,2 km/h (2 Bft) S 180 8,8 C 8,0 C 6,8 km/h (2 Bft)
01.06.2013 17:30 9,5 C 95 % 1013,7 hPa 0,0 l/m 9,0 km/h (2 Bft) S-SO 157 8,7 C 6,3 C 11,3 km/h (2 Bft)
01.06.2013 17:35 9,5 C 95 % 1013,7 hPa 0,7 l/m 8,7 km/h (2 Bft) S-SO 157 8,7 C 6,7 C 11,1 km/h (2 Bft)
01.06.2013 17:40 9,4 C 95 % 1013,9 hPa 0,0 l/m 8,5 km/h (2 Bft) NO 45 8,6 C 6,7 C 5,5 km/h (1 Bft)
01.06.2013 17:45 9,4 C 95 % 1013,9 hPa 0,7 l/m 8,0 km/h (2 Bft) S 180 8,6 C 7,2 C 10,3 km/h (2 Bft)
01.06.2013 17:50 9,4 C 95 % 1013,9 hPa 0,7 l/m 7,1 km/h (2 Bft) S 180 8,6 C 8,0 C 4,0 km/h (1 Bft)
01.06.2013 17:55 9,4 C 95 % 1013,9 hPa 0,0 l/m 6,1 km/h (2 Bft) SO 135 8,6 C 8,8 C 8,7 km/h (2 Bft)
01.06.2013 18:00 9,4 C 95 % 1013,8 hPa 0,0 l/m 6,0 km/h (2 Bft) S 180 8,6 C 8,9 C 6,6 km/h (2 Bft)
01.06.2013 18:05 9,4 C 95 % 1013,8 hPa 0,7 l/m 6,8 km/h (2 Bft) SO 135 8,6 C 8,4 C 11,1 km/h (2 Bft)
01.06.2013 18:10 9,4 C 95 % 1013,8 hPa 0,0 l/m 8,0 km/h (2 Bft) W-NW 292 8,6 C 7,2 C 12,6 km/h (3 Bft)
01.06.2013 18:15 9,4 C 95 % 1013,8 hPa 0,7 l/m 9,5 km/h (2 Bft) S 180 8,6 C 5,8 C 12,1 km/h (2 Bft)
01.06.2013 18:20 9,4 C 95 % 1013,7 hPa 0,0 l/m 8,9 km/h (2 Bft) S 180 8,6 C 6,3 C 16,1 km/h (3 Bft)
01.06.2013 18:25 9,4 C 95 % 1013,7 hPa 0,7 l/m 10,1 km/h (2 Bft) S 180 8,6 C 5,3 C 13,7 km/h (3 Bft)
01.06.2013 18:30 9,4 C 95 % 1013,7 hPa 0,0 l/m 10,6 km/h (2 Bft) S 180 8,6 C 4,9 C 11,4 km/h (2 Bft)
01.06.2013 18:35 9,4 C 95 % 1013,7 hPa 0,7 l/m 9,8 km/h (2 Bft) O 90 8,6 C 5,6 C 11,6 km/h (2 Bft)
01.06.2013 18:40 9,4 C 95 % 1013,8 hPa 0,7 l/m 9,8 km/h (2 Bft) S 180 8,6 C 5,6 C 15,1 km/h (3 Bft)
01.06.2013 18:45 9,4 C 95 % 1013,8 hPa 0,0 l/m 8,0 km/h (2 Bft) S-SW 202 8,6 C 7,2 C 2,9 km/h (1 Bft)
01.06.2013 18:50 9,4 C 95 % 1013,8 hPa 0,0 l/m 5,5 km/h (1 Bft) O 90 8,6 C 9,1 C 6,3 km/h (2 Bft)
01.06.2013 18:55 9,4 C 95 % 1013,8 hPa 0,7 l/m 3,4 km/h (1 Bft) S 180 8,6 C 9,5 C 3,4 km/h (1 Bft)
01.06.2013 19:00 9,4 C 95 % 1014,8 hPa 1,4 l/m 4,7 km/h (1 Bft) S-SW 202 8,6 C 9,3 C 6,3 km/h (2 Bft)
01.06.2013 19:05 9,4 C 95 % 1014,8 hPa 0,7 l/m 5,8 km/h (2 Bft) S-SO 157 8,6 C 8,9 C 6,9 km/h (2 Bft)
01.06.2013 19:10 9,4 C 95 % 1014,8 hPa 0,0 l/m 5,8 km/h (2 Bft) S-SO 157 8,6 C 8,9 C 9,2 km/h (2 Bft)
01.06.2013 19:15 9,4 C 95 % 1014,8 hPa 0,7 l/m 5,6 km/h (1 Bft) S 180 8,6 C 9,0 C 10,5 km/h (2 Bft)
01.06.2013 19:20 9,3 C 95 % 1014,2 hPa 0,7 l/m 6,6 km/h (2 Bft) S-SO 157 8,5 C 8,5 C 8,7 km/h (2 Bft)
01.06.2013 19:25 9,3 C 95 % 1014,2 hPa 0,7 l/m 8,2 km/h (2 Bft) S 180 8,5 C 6,8 C 11,6 km/h (2 Bft)
01.06.2013 19:30 9,3 C 95 % 1014,2 hPa 0,7 l/m 8,4 km/h (2 Bft) S-SO 157 8,5 C 6,6 C 8,5 km/h (2 Bft)
01.06.2013 19:35 9,2 C 95 % 1014,2 hPa 0,7 l/m 8,9 km/h (2 Bft) S 180 8,4 C 6,1 C 16,3 km/h (3 Bft)
01.06.2013 19:40 9,2 C 95 % 1014,6 hPa 0,0 l/m 8,9 km/h (2 Bft) S 180 8,4 C 6,1 C 10,1 km/h (2 Bft)
01.06.2013 19:45 9,1 C 95 % 1014,6 hPa 1,4 l/m 8,9 km/h (2 Bft) S-SO 157 8,3 C 6,1 C 18,7 km/h (3 Bft)
01.06.2013 19:50 9,1 C 95 % 1014,6 hPa 0,0 l/m 9,0 km/h (2 Bft) S 180 8,3 C 5,9 C 10,3 km/h (2 Bft)
01.06.2013 19:55 9,1 C 95 % 1014,6 hPa 0,0 l/m 10,1 km/h (2 Bft) W-SW 247 8,3 C 5,0 C 14,5 km/h (3 Bft)
01.06.2013 20:00 9,1 C 95 % 1014,1 hPa 0,7 l/m 9,0 km/h (2 Bft) NW 315 8,3 C 5,9 C 6,6 km/h (2 Bft)
01.06.2013 20:05 9,1 C 95 % 1014,1 hPa 0,0 l/m 7,7 km/h (2 Bft) S 180 8,3 C 7,1 C 13,7 km/h (3 Bft)
01.06.2013 20:10 9,1 C 95 % 1014,1 hPa 0,0 l/m 7,7 km/h (2 Bft) S 180 8,3 C 7,1 C 11,6 km/h (2 Bft)
01.06.2013 20:15 9,0 C 95 % 1014,1 hPa 0,0 l/m 8,5 km/h (2 Bft) SO 135 8,2 C 6,2 C 18,0 km/h (3 Bft)
01.06.2013 20:20 9,0 C 95 % 1014,1 hPa 0,7 l/m 9,0 km/h (2 Bft) SO 135 8,2 C 5,8 C 8,5 km/h (2 Bft)
01.06.2013 20:25 9,0 C 95 % 1014,1 hPa 0,7 l/m 9,8 km/h (2 Bft) S-SO 157 8,2 C 5,1 C 19,8 km/h (3 Bft)
01.06.2013 20:30 9,0 C 95 % 1014,1 hPa 0,0 l/m 9,8 km/h (2 Bft) S 180 8,2 C 5,1 C 12,2 km/h (2 Bft)
01.06.2013 20:35 8,9 C 96 % 1014,1 hPa 0,0 l/m 9,0 km/h (2 Bft) S-SO 157 8,3 C 5,6 C 10,0 km/h (2 Bft)
01.06.2013 20:40 8,9 C 96 % 1014,1 hPa 0,0 l/m 9,2 km/h (2 Bft) S 180 8,3 C 5,5 C 14,0 km/h (3 Bft)
01.06.2013 20:45 8,9 C 96 % 1014,1 hPa 0,0 l/m 8,9 km/h (2 Bft) S 180 8,3 C 5,8 C 12,7 km/h (3 Bft)
01.06.2013 20:50 8,9 C 96 % 1014,1 hPa 0,0 l/m 7,7 km/h (2 Bft) S-SW 202 8,3 C 6,9 C 7,2 km/h (2 Bft)
01.06.2013 20:55 8,9 C 96 % 1014,1 hPa 0,7 l/m 7,1 km/h (2 Bft) S 180 8,3 C 7,4 C 8,2 km/h (2 Bft)
01.06.2013 21:00 8,9 C 96 % 1014,2 hPa 0,0 l/m 6,9 km/h (2 Bft) S 180 8,3 C 7,7 C 12,6 km/h (3 Bft)
01.06.2013 21:05 8,9 C 96 % 1014,2 hPa 0,0 l/m 6,9 km/h (2 Bft) O-NO 67 8,3 C 7,7 C 3,5 km/h (1 Bft)
01.06.2013 21:10 8,8 C 96 % 1014,2 hPa 0,0 l/m 6,6 km/h (2 Bft) S 180 8,2 C 8,0 C 6,6 km/h (2 Bft)
01.06.2013 21:15 8,9 C 96 % 1014,2 hPa 0,0 l/m 7,2 km/h (2 Bft) S 180 8,3 C 7,4 C 10,0 km/h (2 Bft)
01.06.2013 21:20 8,9 C 96 % 1014,6 hPa 0,0 l/m 8,5 km/h (2 Bft) SO 135 8,3 C 6,1 C 14,0 km/h (3 Bft)
01.06.2013 21:25 8,9 C 96 % 1014,6 hPa 0,0 l/m 9,0 km/h (2 Bft) S-SW 202 8,3 C 5,6 C 13,2 km/h (3 Bft)
01.06.2013 21:30 8,9 C 96 % 1014,6 hPa 0,0 l/m 9,0 km/h (2 Bft) O-SO 112 8,3 C 5,6 C 4,8 km/h (1 Bft)
01.06.2013 21:35 8,9 C 96 % 1014,6 hPa 0,7 l/m 9,0 km/h (2 Bft) S 180 8,3 C 5,6 C 14,6 km/h (3 Bft)
01.06.2013 21:40 8,8 C 96 % 1014,9 hPa 0,0 l/m 8,7 km/h (2 Bft) S 180 8,2 C 5,9 C 10,9 km/h (2 Bft)
01.06.2013 21:45 8,8 C 96 % 1014,9 hPa 0,0 l/m 8,4 km/h (2 Bft) S-SO 157 8,2 C 6,2 C 12,2 km/h (2 Bft)
01.06.2013 21:50 8,8 C 96 % 1014,9 hPa 0,0 l/m 8,7 km/h (2 Bft) S-SW 202 8,2 C 5,9 C 8,0 km/h (2 Bft)
01.06.2013 21:55 8,9 C 96 % 1014,9 hPa 0,0 l/m 8,7 km/h (2 Bft) S-SO 157 8,3 C 5,9 C 7,9 km/h (2 Bft)
01.06.2013 22:00 8,9 C 96 % 1015,2 hPa 0,7 l/m 7,9 km/h (2 Bft) SO 135 8,3 C 6,6 C 5,3 km/h (1 Bft)
01.06.2013 22:05 8,8 C 96 % 1015,2 hPa 0,0 l/m 7,9 km/h (2 Bft) S 180 8,2 C 6,6 C 13,7 km/h (3 Bft)
01.06.2013 22:10 8,8 C 96 % 1015,2 hPa 0,7 l/m 8,0 km/h (2 Bft) S-SO 157 8,2 C 6,5 C 14,8 km/h (3 Bft)
01.06.2013 22:15 8,8 C 96 % 1015,2 hPa 0,0 l/m 10,3 km/h (2 Bft) S 180 8,2 C 4,5 C 10,3 km/h (2 Bft)
01.06.2013 22:20 8,8 C 96 % 1015,3 hPa 0,7 l/m 10,8 km/h (2 Bft) S 180 8,2 C 4,1 C 12,7 km/h (3 Bft)
01.06.2013 22:25 8,8 C 96 % 1015,3 hPa 0,7 l/m 9,0 km/h (2 Bft) S 180 8,2 C 5,6 C 10,8 km/h (2 Bft)
01.06.2013 22:30 8,8 C 96 % 1015,3 hPa 0,0 l/m 8,0 km/h (2 Bft) S-SW 202 8,2 C 6,5 C 6,3 km/h (2 Bft)
01.06.2013 22:35 8,8 C 96 % 1015,3 hPa 0,7 l/m 9,2 km/h (2 Bft) O-SO 112 8,2 C 5,5 C 8,0 km/h (2 Bft)
01.06.2013 22:40 8,8 C 96 % 1015,2 hPa 0,0 l/m 9,0 km/h (2 Bft) S-SO 157 8,2 C 5,6 C 8,0 km/h (2 Bft)
01.06.2013 22:45 8,8 C 96 % 1015,2 hPa 0,7 l/m 7,7 km/h (2 Bft) S 180 8,2 C 6,9 C 9,2 km/h (2 Bft)
01.06.2013 22:50 8,9 C 96 % 1015,2 hPa 0,0 l/m 8,0 km/h (2 Bft) S-SO 157 8,3 C 6,5 C 7,9 km/h (2 Bft)
01.06.2013 22:55 8,9 C 96 % 1015,2 hPa 0,0 l/m 8,4 km/h (2 Bft) S-SO 157 8,3 C 6,2 C 13,2 km/h (3 Bft)
01.06.2013 23:00 8,9 C 96 % 1015,4 hPa 0,0 l/m 7,6 km/h (2 Bft) S 180 8,3 C 7,0 C 4,0 km/h (1 Bft)
01.06.2013 23:05 8,9 C 96 % 1015,4 hPa 0,0 l/m 7,7 km/h (2 Bft) S 180 8,3 C 6,9 C 17,1 km/h (3 Bft)
01.06.2013 23:10 8,9 C 96 % 1015,4 hPa 0,7 l/m 8,7 km/h (2 Bft) S 180 8,3 C 5,9 C 11,1 km/h (2 Bft)
01.06.2013 23:15 8,9 C 96 % 1015,4 hPa 0,0 l/m 9,2 km/h (2 Bft) S 180 8,3 C 5,5 C 9,3 km/h (2 Bft)
01.06.2013 23:20 8,9 C 96 % 1015,6 hPa 0,0 l/m 8,5 km/h (2 Bft) S 180 8,3 C 6,1 C 12,9 km/h (3 Bft)
01.06.2013 23:25 8,9 C 96 % 1015,6 hPa 0,0 l/m 8,5 km/h (2 Bft) S 180 8,3 C 6,1 C 10,1 km/h (2 Bft)
01.06.2013 23:30 8,9 C 96 % 1015,6 hPa 0,0 l/m 8,0 km/h (2 Bft) S-SO 157 8,3 C 6,5 C 4,5 km/h (1 Bft)
01.06.2013 23:35 8,9 C 96 % 1015,6 hPa 0,0 l/m 7,2 km/h (2 Bft) S 180 8,3 C 7,4 C 9,2 km/h (2 Bft)
01.06.2013 23:40 8,8 C 96 % 1015,7 hPa 0,0 l/m 7,4 km/h (2 Bft) W 270 8,2 C 7,1 C 12,6 km/h (3 Bft)
01.06.2013 23:45 8,8 C 96 % 1015,7 hPa 0,0 l/m 7,7 km/h (2 Bft) W 270 8,2 C 6,9 C 8,4 km/h (2 Bft)
01.06.2013 23:50 8,8 C 96 % 1015,7 hPa 0,7 l/m 8,0 km/h (2 Bft) O 90 8,2 C 6,5 C 11,7 km/h (2 Bft)
01.06.2013 23:55 8,8 C 96 % 1015,7 hPa 0,0 l/m 8,4 km/h (2 Bft) SO 135 8,2 C 6,2 C 12,1 km/h (2 Bft)
_ Min-Zeit 00:05 12:00 00:15 - 05:25 - - 00:05 22:20 05:55
Minimum _ 7,2 C 85 % 1006,4 hPa - 0,3 km/h (0 Bft) - - 6,6 C 4,1 C 0,0 km/h (0 Bft)
_ Max-Zeit 08:55 23:55 23:55 19:45 13:30 - - 08:55 09:00 13:30
Maximum _ 15,8 C 96 % 1015,7 hPa 1,4 l/m 11,9 km/h
SO (2 Bft)
- - 13,3 C 15,3 C 24,1 km/h
SO (4 Bft)
Durchschnitt _ 9,6 C 94 % 1012,1 hPa #38,5 l/m 6,0 km/h (2 Bft) S - 8,7 C 8,5 C 8,0 km/h (2 Bft)